Regional Weather Roundup
Issued by NWS

Home | Current Version | Previous Version | Graphics & Text | Print | Product List | Glossary On
Versions: 1 2 3 4 5 6 7 8 9 10 11 12 13 14 15 16 17 18 19 20 21 22 23 24 25 26 27 28 29 30 31 32 33 34 35 36 37 38 39 40 41 42 43 44 45 46 47 48 49 50
000
ASUS45 KSLC 251410
RWRUT

UTAH REGIONAL WEATHER ROUNDUP
NATIONAL WEATHER SERVICE SALT LAKE CITY UT
800 AM MDT FRI JUL 25 2014

UTZ001>011-023>025-251500-

NORTHERN UTAH

CITY           SKY/WX    TMP DP  RH WIND       PRES   REMARKS
HILL AFB       SUNNY     66  40  37 E15       30.07R
LOGAN          SUNNY     57  37  47 CALM      30.11R
OGDEN          SUNNY     68  40  35 S3        30.05R
PROVO AIRPORT  MOSUNNY   66  46  48 E6        30.08S
SALT LAKE CITY MOSUNNY   69  40  34 W3        30.04R
VERNAL         MOSUNNY   69  54  58 W3        30.12R
WENDOVER       MOSUNNY   70  36  28 CALM      30.07R
HEBER CITY     SUNNY     59  45  58 CALM      30.15S
WEST JORDAN    SUNNY     72  46  40 CALM      30.06S

$$

UTZ012>022-026-027-251500-

SOUTHERN UTAH

CITY           SKY/WX    TMP DP  RH WIND       PRES   REMARKS
BRYCE CANYON   CLOUDY    63  48  58 SW5       30.35R
CEDAR CITY     MOSUNNY   76  48  37 SW9       30.16R
MILFORD        MOSUNNY   74  49  41 S13       30.10R
MOAB/CYNLANDS  MOSUNNY   82  51  34 E10       30.07R
PRICE          PTSUNNY   77  49  37 E5        30.17R
ST GEORGE      SUNNY     86  52  30 E5        29.98R
KANAB            N/A     73  50  43 NW6       30.19R

$$

REGIONAL REPORTS     COLORADO/ARIZONA

CITY           SKY/WX    TMP DP  RH WIND       PRES   REMARKS
CRAIG, CO      MOSUNNY   61  54  77 E5        30.21F
GRAND JUNCTION MOSUNNY   73  53  49 SE17      30.13S
RIFLE          MOSUNNY   68  51  54 VRB5      30.21S
MONTROSE       MOSUNNY   68  50  52 S5        30.26R
CORTEZ         SUNNY     70  53  54 NE3       30.24R
PAGE, AZ       CLOUDY    84  49  29 S3        30.10R
GRAND CANYON   MOSUNNY   64  53  67 CALM      30.31R
KINGMAN        PTSUNNY   83  53  35 SE12      30.03R
FLAGSTAFF      SUNNY     56  51  84 CALM      30.35S

$$

REGIONAL REPORTS    NEVADA/IDAHO/WYOMING

CITY           SKY/WX    TMP DP  RH WIND       PRES   REMARKS
LAS VEGAS, NV  MOSUNNY   91  46  21 S10       29.83R
ELY            SUNNY     55  29  36 S8        30.19R
ELKO           SUNNY     53  34  48 CALM      30.13R
POCATELLO, ID  SUNNY     60  26  27 SW8       30.15S
BURLEY         SUNNY     54  36  50 CALM      30.13R
EVANSTON, WY   SUNNY     60  38  43 CALM      30.23S
ROCK SPRINGS   SUNNY     64  29  26 CALM      30.19S

$$


USA.gov is the U.S. government's official web portal to all federal, state and local government web resources and services.